Time,TemperatureF,DewpointF,PressureIn,WindDirection,WindDirectionDegrees,WindSpeedMPH,WindSpeedGustMPH,Humidity,HourlyPrecipIn,Conditions,Clouds,dailyrainin,SoftwareType,DateUTC
2017-08-23 00:00:00,67.4,60.7,29.94,NNW,328,0.0,1.0,79,0.00,,,0.00,Wunderground v.1.15,2017-08-23 07:00:00,
2017-08-23 00:10:00,67.3,60.6,29.94,NNW,328,0.0,0.0,79,0.00,,,0.00,Wunderground v.1.15,2017-08-23 07:10:00,
2017-08-23 00:20:00,67.0,60.6,29.94,NNW,328,0.0,0.0,80,0.00,,,0.00,Wunderground v.1.15,2017-08-23 07:20:00,
2017-08-23 00:30:00,66.7,60.3,29.94,NNW,328,0.0,0.0,80,0.00,,,0.00,Wunderground v.1.15,2017-08-23 07:30:00,
2017-08-23 00:40:00,66.4,60.4,29.94,NNW,328,0.0,0.0,81,0.00,,,0.00,Wunderground v.1.15,2017-08-23 07:40:00,
2017-08-23 00:45:00,66.2,60.2,29.94,NNW,328,0.0,0.0,81,0.00,,,0.00,Wunderground v.1.15,2017-08-23 07:45:00,
2017-08-23 00:55:00,66.2,60.5,29.94,NNW,328,0.0,0.0,82,0.00,,,0.00,Wunderground v.1.15,2017-08-23 07:55:00,
2017-08-23 01:05:00,66.0,60.3,29.94,NNW,328,0.0,0.0,82,0.00,,,0.00,Wunderground v.1.15,2017-08-23 08:05:00,
2017-08-23 01:15:00,65.8,60.5,29.94,NNW,328,0.0,0.0,83,0.00,,,0.00,Wunderground v.1.15,2017-08-23 08:15:00,
2017-08-23 01:20:00,65.8,60.5,29.94,NNW,328,0.0,0.0,83,0.00,,,0.00,Wunderground v.1.15,2017-08-23 08:20:00,
2017-08-23 01:30:00,66.0,60.7,29.94,NNW,328,0.0,0.0,83,0.00,,,0.00,Wunderground v.1.15,2017-08-23 08:30:00,
2017-08-23 01:35:00,66.0,60.3,29.94,NNW,328,0.0,0.0,82,0.00,,,0.00,Wunderground v.1.15,2017-08-23 08:35:00,
2017-08-23 01:45:00,65.9,60.6,29.94,NNW,328,0.0,0.0,83,0.00,,,0.00,Wunderground v.1.15,2017-08-23 08:45:00,
2017-08-23 01:55:00,65.9,60.6,29.93,NNW,328,0.0,0.0,83,0.00,,,0.00,Wunderground v.1.15,2017-08-23 08:55:00,
2017-08-23 02:05:00,65.8,60.5,29.93,NNW,328,0.0,0.0,83,0.00,,,0.00,Wunderground v.1.15,2017-08-23 09:05:00,
2017-08-23 02:15:00,65.7,60.4,29.94,NNW,328,0.0,0.0,83,0.00,,,0.00,Wunderground v.1.15,2017-08-23 09:15:00,
2017-08-23 02:25:00,65.7,60.7,29.94,NNW,328,0.0,0.0,84,0.00,,,0.00,Wunderground v.1.15,2017-08-23 09:25:00,
2017-08-23 02:35:00,65.7,60.4,29.94,NNW,328,0.0,0.0,83,0.00,,,0.00,Wunderground v.1.15,2017-08-23 09:35:00,
2017-08-23 02:40:00,65.6,60.3,29.94,NW,320,0.0,0.0,83,0.00,,,0.00,Wunderground v.1.15,2017-08-23 09:40:00,
2017-08-23 02:50:00,65.5,60.2,29.94,NW,321,0.0,0.0,83,0.00,,,0.00,Wunderground v.1.15,2017-08-23 09:50:00,
2017-08-23 02:55:00,65.2,59.9,29.93,NW,321,0.0,0.0,83,0.00,,,0.00,Wunderground v.1.15,2017-08-23 09:55:00,
2017-08-23 03:05:00,65.0,60.0,29.93,NW,321,0.0,0.0,84,0.00,,,0.00,Wunderground v.1.15,2017-08-23 10:05:00,
2017-08-23 03:15:00,64.9,60.3,29.92,NW,321,0.0,0.0,85,0.00,,,0.00,Wunderground v.1.15,2017-08-23 10:15:00,
2017-08-23 03:20:00,64.8,60.2,29.92,NW,321,0.0,0.0,85,0.00,,,0.00,Wunderground v.1.15,2017-08-23 10:20:00,
2017-08-23 03:30:00,64.7,60.1,29.92,NW,321,0.0,0.0,85,0.00,,,0.00,Wunderground v.1.15,2017-08-23 10:30:00,
2017-08-23 03:35:00,64.6,60.0,29.92,NW,320,0.0,0.0,85,0.00,,,0.00,Wunderground v.1.15,2017-08-23 10:35:00,
2017-08-23 03:45:00,64.5,59.9,29.92,NW,321,0.0,0.0,85,0.00,,,0.00,Wunderground v.1.15,2017-08-23 10:45:00,
2017-08-23 03:55:00,64.2,59.9,29.91,NW,321,0.0,0.0,86,0.00,,,0.00,Wunderground v.1.15,2017-08-23 10:55:00,
2017-08-23 04:05:00,63.9,59.6,29.92,NW,321,0.0,0.0,86,0.00,,,0.00,Wunderground v.1.15,2017-08-23 11:05:00,
2017-08-23 04:10:00,63.8,59.5,29.91,NW,320,0.0,0.0,86,0.00,,,0.00,Wunderground v.1.15,2017-08-23 11:10:00,
2017-08-23 04:20:00,63.7,59.4,29.91,NW,321,0.0,0.0,86,0.00,,,0.00,Wunderground v.1.15,2017-08-23 11:20:00,
2017-08-23 04:30:00,63.6,59.7,29.91,NW,321,0.0,0.0,87,0.00,,,0.00,Wunderground v.1.15,2017-08-23 11:30:00,
2017-08-23 04:39:00,63.6,59.7,29.91,NW,321,0.0,0.0,87,0.00,,,0.00,Wunderground v.1.15,2017-08-23 11:39:00,
2017-08-23 04:45:00,63.5,59.6,29.91,NW,321,0.0,0.0,87,0.00,,,0.00,Wunderground v.1.15,2017-08-23 11:45:00,
2017-08-23 04:55:00,63.3,59.4,29.91,NW,321,0.0,0.0,87,0.00,,,0.00,Wunderground v.1.15,2017-08-23 11:55:00,
2017-08-23 05:00:00,63.2,59.6,29.91,NW,321,0.0,0.0,88,0.00,,,0.00,Wunderground v.1.15,2017-08-23 12:00:00,
2017-08-23 05:10:00,62.9,59.3,29.91,NW,321,0.0,0.0,88,0.00,,,0.00,Wunderground v.1.15,2017-08-23 12:10:00,
2017-08-23 05:15:00,62.9,59.3,29.92,NW,321,0.0,0.0,88,0.00,,,0.00,Wunderground v.1.15,2017-08-23 12:15:00,
2017-08-23 05:25:00,62.8,59.2,29.92,NW,321,0.0,0.0,88,0.00,,,0.00,Wunderground v.1.15,2017-08-23 12:25:00,
2017-08-23 05:35:00,62.8,59.5,29.93,NW,321,0.0,0.0,89,0.00,,,0.00,Wunderground v.1.15,2017-08-23 12:35:00,
2017-08-23 05:45:00,62.7,59.4,29.94,NW,321,0.0,0.0,89,0.00,,,0.00,Wunderground v.1.15,2017-08-23 12:45:00,
2017-08-23 05:50:00,62.8,59.8,29.93,NW,321,0.0,0.0,90,0.00,,,0.00,Wunderground v.1.15,2017-08-23 12:50:00,
2017-08-23 06:00:00,62.6,59.6,29.93,NW,321,0.0,0.0,90,0.00,,,0.00,Wunderground v.1.15,2017-08-23 13:00:00,
2017-08-23 06:05:00,62.4,59.4,29.92,NW,320,0.0,0.0,90,0.00,,,0.00,Wunderground v.1.15,2017-08-23 13:05:00,
2017-08-23 06:15:00,62.6,59.6,29.92,NW,321,0.0,0.0,90,0.00,,,0.00,Wunderground v.1.15,2017-08-23 13:15:00,
2017-08-23 06:20:00,62.6,59.6,29.92,NW,320,0.0,0.0,90,0.00,,,0.00,Wunderground v.1.15,2017-08-23 13:20:00,
2017-08-23 06:30:00,62.5,59.5,29.93,South,175,0.0,0.0,90,0.00,,,0.00,Wunderground v.1.15,2017-08-23 13:30:00,
2017-08-23 06:40:00,62.4,59.4,29.93,SW,221,0.0,0.0,90,0.00,,,0.00,Wunderground v.1.15,2017-08-23 13:40:00,
2017-08-23 06:50:00,62.4,59.7,29.94,SW,221,0.0,0.0,91,0.00,,,0.00,Wunderground v.1.15,2017-08-23 13:50:00,
2017-08-23 06:55:00,62.4,59.7,29.94,SW,221,0.0,0.0,91,0.00,,,0.00,Wunderground v.1.15,2017-08-23 13:55:00,
2017-08-23 07:05:00,62.4,59.7,29.94,SW,221,0.0,0.0,91,0.00,,,0.00,Wunderground v.1.15,2017-08-23 14:05:00,
2017-08-23 07:15:00,62.7,60.0,29.94,SW,221,0.0,0.0,91,0.00,,,0.00,Wunderground v.1.15,2017-08-23 14:15:00,
2017-08-23 07:25:00,63.0,60.3,29.94,SW,221,0.0,0.0,91,0.00,,,0.00,Wunderground v.1.15,2017-08-23 14:25:00,
2017-08-23 07:35:00,63.8,61.1,29.94,SE,143,0.0,0.0,91,0.00,,,0.00,Wunderground v.1.15,2017-08-23 14:35:00,
2017-08-23 07:45:00,65.4,62.7,29.94,SE,143,0.0,0.0,91,0.00,,,0.00,Wunderground v.1.15,2017-08-23 14:45:00,
2017-08-23 07:55:00,66.4,62.1,29.94,SSE,147,0.0,0.0,86,0.00,,,0.00,Wunderground v.1.15,2017-08-23 14:55:00,
2017-08-23 08:04:00,66.9,62.2,29.94,SE,125,0.0,1.0,85,0.00,,,0.00,Wunderground v.1.15,2017-08-23 15:04:00,
2017-08-23 08:10:00,67.4,62.7,29.94,SE,125,0.0,1.0,85,0.00,,,0.00,Wunderground v.1.15,2017-08-23 15:10:00,
2017-08-23 08:20:00,68.3,62.6,29.94,South,175,0.0,1.0,82,0.00,,,0.00,Wunderground v.1.15,2017-08-23 15:20:00,
2017-08-23 08:25:00,68.8,63.1,29.94,South,175,0.0,1.0,82,0.00,,,0.00,Wunderground v.1.15,2017-08-23 15:25:00,
2017-08-23 08:35:00,70.3,63.1,29.94,SE,136,0.0,0.0,78,0.00,,,0.00,Wunderground v.1.15,2017-08-23 15:35:00,
2017-08-23 08:40:00,70.8,64.0,29.94,SE,136,0.0,0.0,79,0.00,,,0.00,Wunderground v.1.15,2017-08-23 15:40:00,
2017-08-23 08:50:00,71.1,63.1,29.94,ESE,117,0.0,0.0,76,0.00,,,0.00,Wunderground v.1.15,2017-08-23 15:50:00,
2017-08-23 09:00:00,71.3,63.3,29.94,West,271,0.0,0.0,76,0.00,,,0.00,Wunderground v.1.15,2017-08-23 16:00:00,
2017-08-23 09:10:00,72.5,63.7,29.94,SW,231,0.0,0.0,74,0.00,,,0.00,Wunderground v.1.15,2017-08-23 16:10:00,